Flag for Germany Weather past 2 weeks in Burgdorf, Lower Saxony, Germany

Now
43 °F

Quite cool.


Feels Like: 36 °F
Forecast: 46 / 52 °F
Wind: 14 mph from Southwest

Location: Celle Airport

Current Time: Dec 21, 2014 at 1:19:18 PM

Latest Report: Dec 21, 2014 at 12:20 PM


Visibility: 5 mi

Pressure: 30.24 "Hg

Humidity: 87%

Dew point: 39 °F

Location of BurgdorfLocation

Historic Weather in Burgdorf — Graph

°F

Burgdorf temperature yesterday

Maximum temperature yesterday: 45 °F (at 4:20 AM)
Minimum temperature yesterday: 37 °F (at 7:20 PM)
Average temperature yesterday: 42 °F

Past Weeks' High & Low Weather Summary

 TemperatureHumidityPressure
High54 °F (Dec 18, 3:20 PM)100% (Dec 6, 11:20 PM)30.36 "Hg (Dec 6, 11:20 PM)
Low32 °F (Dec 9, 8:20 PM)70% (Dec 10, 5:20 AM)29.33 "Hg (Dec 12, 1:20 PM)
Average41 °F88%29.88 "Hg
* Reported Dec 6 11:20 AM — Dec 21 11:20 AM, Burgdorf, Weather by CustomWeather, © 2014

Note: Actual official high and low records may vary slightly from our data, if they occured in-between our weather recording intervals... More about our weather records

Advertising

Burgdorf weather history for previous 24 hours

 ConditionsComfort  
Time TempWeatherWind HumidityBarometerVisibility
11:20 AM
Dec 21
43 °FQuite cool.15 mph87%30.27 "Hg4 mi
10:20 AM41 °FQuite cool.13 mph87%30.27 "Hg5 mi
9:20 AM39 °FChilly.10 mph93%30.27 "Hg5 mi
8:20 AM39 °FChilly.10 mph93%30.27 "Hg5 mi
7:20 AM39 °FChilly.9 mph93%30.24 "Hg5 mi
6:20 AM41 °FQuite cool.9 mph87%30.24 "Hg5 mi
5:20 AM39 °FChilly.10 mph87%30.21 "Hg6 mi
4:20 AM39 °FChilly.9 mph87%30.21 "Hg5 mi
3:20 AM39 °FChilly.10 mph93%30.18 "Hg5 mi
2:20 AM41 °FQuite cool.12 mph87%30.15 "Hg3 mi
1:20 AM41 °FQuite cool.15 mph87%30.12 "Hg2 mi
12:20 AM41 °FQuite cool.14 mph81%30.09 "Hg6 mi
11:20 PM
Dec 20
39 °FChilly.13 mph87%30.09 "HgN/A
10:20 PM39 °FChilly.13 mph87%30.07 "HgN/A
9:20 PM37 °FChilly.10 mph93%30.04 "HgN/A
8:20 PM37 °FChilly.10 mph93%30.01 "HgN/A
7:20 PM37 °FChilly.8 mph100%29.95 "Hg1 mi
6:20 PM39 °FChilly.8 mph93%29.92 "Hg5 mi
5:20 PM41 °FQuite cool.14 mph87%29.86 "Hg5 mi
4:20 PM39 °FChilly.13 mph93%29.83 "HgN/A
3:20 PM39 °FChilly.13 mph87%29.83 "Hg6 mi
2:20 PM39 °FChilly.18 mph87%29.86 "Hg1 mi
1:20 PM43 °FQuite cool.21 mph87%29.83 "Hg4 mi
Weather by CustomWeather, © 2014

See weather overviewHow to use our weather pages